Change the Weather History Date:

Friday, November 18, 2011

  Actual Average Record
Temperature  
Mean Temperature 48 °F -  
Max Temperature 59 °F 55 °F 75 °F (1999)
Min Temperature 36 °F 35 °F 8 °F (2014)
Degree Days  
Heating Degree Days 18    
Moisture  
Dew Point 31 °F    
Average Humidity 47    
Maximum Humidity 67    
Minimum Humidity 32    
Precipitation  
Precipitation 0.00 in - - ()
Sea Level Pressure  
Sea Level Pressure 29.94 in    
Wind  
Wind Speed 17 mph (South)    
Max Wind Speed 29 mph    
Max Gust Speed 44 mph    
Visibility 10 miles    
Events      
Averages and records for this station are not official NWS values.
T = Trace of Precipitation, MM = Missing Value Source: NWS Daily Summary

Daily Weather History Graph

Daily Weather History Graph

Search for Another Location

Airport or City:

Trip Planner

Search our weather history database for the weather conditions in past years. The results will help you decide how hot, cold, wet, or windy it might be!

Date:

Astronomy

Nov. 18, 2011 Rise Set
Actual Time 7:03 AM CST 5:10 PM CST
Civil Twilight 6:36 AM CST 5:38 PM CST
Nautical Twilight 6:04 AM CST 6:10 PM CST
Astronomical Twilight 5:33 AM CST 6:40 PM CST
Moon No Moon Rise 12:48 PM CST (11/18)
Length of Visible Light 11h 02m
Length of Day
10h 06m
Waning Gibbous, 49% of the Moon is Illuminated
Nov 18
Waning Gibbous
Nov 25
New
Dec 2
First Quarter
Dec 10
Full
Dec 17
Last Quarter

Hourly Weather History & Observations

Time (CST) Temp. Windchill Dew Point Humidity Pressure Visibility Wind Dir Wind Speed Gust Speed Precip Events Conditions
12:52 AM 36.0 °F 31.1 °F 26.1 °F 67% 30.14 in 10.0 mi SSE 5.8 mph - N/A   Clear
1:52 AM 42.1 °F 35.7 °F 27.0 °F 55% 30.13 in 10.0 mi South 11.5 mph - N/A   Clear
3:52 AM 42.1 °F 35.2 °F 28.0 °F 58% 30.11 in 10.0 mi South 12.7 mph - N/A   Clear
4:52 AM 42.1 °F 35.2 °F 27.0 °F 55% 30.09 in 10.0 mi South 12.7 mph - N/A   Clear
6:52 AM 43.0 °F 34.5 °F 26.1 °F 51% 30.07 in 10.0 mi South 19.6 mph 27.6 mph N/A   Clear
7:52 AM 44.1 °F 35.9 °F 27.0 °F 51% 30.06 in 10.0 mi South 19.6 mph 31.1 mph N/A   Clear
8:52 AM 46.9 °F - 26.1 °F 44% 30.05 in 10.0 mi South 25.3 mph 43.7 mph N/A   Clear
10:52 AM 52.0 °F - 27.0 °F 38% 30.01 in 10.0 mi South 27.6 mph 40.3 mph N/A   Clear
11:52 AM 57.0 °F - 28.0 °F 33% 29.97 in 10.0 mi South 28.8 mph 39.1 mph N/A   Clear
12:52 PM 59.0 °F - 28.9 °F 32% 29.93 in 10.0 mi South 28.8 mph 40.3 mph N/A   Clear
1:52 PM 59.0 °F - 28.9 °F 32% 29.89 in 10.0 mi South 27.6 mph 35.7 mph N/A   Clear
2:52 PM 57.9 °F - 30.0 °F 35% 29.86 in 10.0 mi South 23.0 mph 39.1 mph N/A   Clear
3:52 PM 59.0 °F - 32.0 °F 36% 29.84 in 10.0 mi South 23.0 mph 38.0 mph N/A   Clear
4:52 PM 57.0 °F - 33.1 °F 40% 29.82 in 10.0 mi South 18.4 mph 28.8 mph N/A   Clear
5:52 PM 55.9 °F - 36.0 °F 47% 29.83 in 10.0 mi South 17.3 mph 27.6 mph N/A   Clear
6:52 PM 55.0 °F - 37.0 °F 51% 29.83 in 10.0 mi South 19.6 mph 27.6 mph N/A   Clear
7:52 PM 54.0 °F - 37.9 °F 55% 29.83 in 10.0 mi South 18.4 mph 31.1 mph N/A   Clear
8:52 PM 54.0 °F - 37.9 °F 55% 29.81 in 10.0 mi South 18.4 mph 27.6 mph N/A   Clear
9:52 PM 54.0 °F - 37.0 °F 53% 29.81 in 10.0 mi South 20.7 mph 32.2 mph N/A   Clear
10:52 PM 55.0 °F - 36.0 °F 49% 29.80 in 10.0 mi South 23.0 mph 33.4 mph N/A   Scattered Clouds
11:52 PM 55.0 °F - 35.1 °F 47% 29.78 in 10.0 mi South 23.0 mph 31.1 mph N/A   Partly Cloudy